{"data":{"norad_id":53819,"epoch":"2026-09-20T22:16:01.916544Z","epoch_age_seconds":47349,"freshness":"FRESH","line1":"1 53819U 22114B   26263.92779996  .00000353  00000+0  23158-4 0  9996","line2":"2 53819  53.1592 133.8343 0001626  97.5805 262.5381 15.31707666222495","mean_motion":15.31707666,"eccentricity":0.0001626,"inclination_deg":53.1592,"raan_deg":133.8343,"arg_perigee_deg":97.5805,"mean_anomaly_deg":262.5381,"bstar":2.3158e-5,"rev_number":22249,"period_min":94.012717437167,"perigee_km":469.60351969015,"apogee_km":471.83076705758,"semimajor_km":6848.8541433739,"source":"CELESTRAK","updated_at":"2026-09-21T09:00:32.997545Z"}}